Regional Weather Roundup
Issued by NWS Charleston, WV

Home | Current Version | Previous Version | Graphics & Text | Print | Product List | Glossary On
Versions: 1 2 3 4 5 6 7 8 9 10 11 12 13 14 15 16 17 18 19 20 21 22 23 24 25 26 27
000
ASUS41 KRLX 160410
RWRRLX
West Virginia Regional Weather Roundup
National Weather Service Charleston WV
1100 PM EST FRI DEC 15 2017

Note: "fair" indicates few or no clouds below 12,000 feet with no
significant weather and/or obstructions to visibility.

WVZ003-160500-
Northern Panhandle of West Virginia

CITY           SKY/WX    TMP DP  RH WIND       PRES   REMARKS
WHEELING       CLOUDY    28  17  63 W12       30.02R
$$

WVZ009-160500-
Northwest West Virginia

CITY           SKY/WX    TMP DP  RH WIND       PRES   REMARKS
PARKERSBURG    CLOUDY    32  19  58 W10       30.12R
$$

WVZ006-160500-
Western West Virginia

CITY           SKY/WX    TMP DP  RH WIND       PRES   REMARKS
HUNTINGTON     CLOUDY    32  19  58 SW6       30.12R
$$

WVZ015-160500-
West Central West Virginia

CITY           SKY/WX    TMP DP  RH WIND       PRES   REMARKS
CHARLESTON     CLOUDY    32  19  58 SW7       30.11S
$$

WVZ022-031-160500-
North Central West Virginia

CITY           SKY/WX    TMP DP  RH WIND       PRES   REMARKS
CLARKSBURG     CLOUDY    31  19  61 W14       30.05R
MORGANTOWN     CLOUDY    30  16  56 VRB5      30.03R
$$

WVZ025-035-042-045-160500-
Southern West Virginia

CITY           SKY/WX    TMP DP  RH WIND       PRES   REMARKS
BECKLEY        CLOUDY    26  17  68 W10G22    30.05R
LOGAN          CLOUDY    30  19  64 SW9       30.10S
BLUEFIELD      CLOUDY    24  15  68 W15G24    30.04R
LEWISBURG      CLOUDY    28  17  65 W6        30.03S
$$

WVZ047-160500-
Northern Mountains of West Virginia

CITY           SKY/WX    TMP DP  RH WIND       PRES   REMARKS
ELKINS         FLURRIES  27  16  63 W10       30.02R
$$

WVZ052-160500-
Eastern Panhandle of West Virginia

CITY           SKY/WX    TMP DP  RH WIND       PRES   REMARKS
MARTINSBURG    CLOUDY    34  15  46 W16G26    29.97R
PETERSBURG     CLOUDY    32  16  51 W17G23    30.00R
$$




USA.gov is the U.S. government's official web portal to all federal, state and local government web resources and services.